KB2UHF-8 Weather Reports


time (UTC)temp
C
wind
direction
speed
KPH
gust
KPH
rain 1hr
cm
rain 24hr
cm
rain mn
cm
humidity
%
barometer
mb
20260901041517 23 0.0 0.0 0.00 0.00 0.00 94 1013.9
20260901040517 23 0.0 0.0 0.00 0.00 0.00 94 1014.0
20260901035517 23 0.0 0.0 0.00 0.00 0.00 93 1014.1
20260901034517 24 0.0 1.6 0.00 0.00 0.00 93 1014.0
20260901033517 24 0.0 4.8 0.00 0.00 0.00 92 1014.0
20260901032517 24 180 3.2 6.4 0.00 0.00 0.00 92 1014.1
20260901031517 24 0.0 0.0 0.00 0.00 0.00 92 1014.1
20260901030517 24 0.0 0.0 0.00 0.00 0.00 92 1014.1
20260901025517 25 0.0 0.0 0.00 0.00 0.00 91 1014.0
20260901024538 25 0.0 0.0 0.00 0.00 0.00 90 1014.2
20260901023537 25 0.0 0.0 0.00 0.00 0.00 90 1014.0
20260901022517 25 0.0 0.0 0.00 0.00 0.00 89 1014.0
20260901021517 25 0.0 0.0 0.00 0.00 0.00 89 1014.1
20260901020517 25 0.0 0.0 0.00 0.00 0.00 88 1013.9
20260901015517 25 0.0 0.0 0.00 0.00 0.00 88 1013.9
20260901014517 25 0.0 0.0 0.00 0.00 0.00 87 1013.8
20260901013517 25 0.0 0.0 0.00 0.00 0.00 86 1013.6
20260901012517 26 0.0 0.0 0.00 0.00 0.00 85 1013.5
20260901011517 26 203 1.6 4.8 0.00 0.00 0.00 84 1013.3
20260901010517 26 203 1.6 6.4 0.00 0.00 0.00 83 1013.4
20260901005537 27 203 1.6 6.4 0.00 0.00 0.00 82 1013.3
20260901004517 27 0.0 0.0 0.00 0.00 0.00 81 1013.4
20260901003517 27 0.0 0.0 0.00 0.00 0.00 80 1013.4
20260901002517 28 0.0 3.2 0.00 0.00 0.00 80 1013.4
20260901001518 28 0.0 4.8 0.00 0.00 0.00 79 1013.3
20260901000537 28 0.0 0.0 0.00 0.00 0.00 80 1013.2
20260831235517 28 248 3.2 6.4 0.00 0.43 0.00 79 1013.2
20260831234537 28 0.0 4.8 0.00 0.43 0.00 78 1013.2
20260831233518 28 225 1.6 6.4 0.00 0.43 0.00 79 1013.2
20260831232517 28 225 3.2 8.0 0.00 0.43 0.00 77 1013.1
20260831231517 29 248 4.8 11.3 0.00 0.43 0.00 75 1012.9
20260831230517 30 225 3.2 9.7 0.00 0.43 0.00 77 1012.9
20260831225517 30 225 1.6 14.5 0.00 0.43 0.00 78 1012.7
20260831224537 28 225 3.2 8.0 0.00 0.43 0.00 81 1012.6
20260831223517 29 225 1.6 8.0 0.00 0.43 0.00 79 1012.6
20260831222537 30 225 1.6 6.4 0.00 0.43 0.00 78 1012.9
20260831221516 29 203 1.6 4.8 0.00 0.43 0.00 80 1012.7
20260831220517 29 225 4.8 11.3 0.00 0.43 0.00 78 1012.9
20260831215516 30 225 4.8 9.7 0.00 0.43 0.00 76 1012.7
20260831215016 30 248 3.2 6.4 0.00 0.43 0.00 76 1012.6
20260831214016 30 158 4.8 12.9 0.00 0.43 0.00 76 1012.4
20260831213017 30 203 6.4 17.7 0.00 0.43 0.00 77 1012.2
20260831212036 30 158 8.0 14.5 0.00 0.43 0.00 79 1012.2
20260831211037 29 158 6.4 14.5 0.00 0.43 0.00 84 1012.0
20260831210018 28 180 4.8 9.7 0.00 0.43 0.00 83 1011.9
20260831205018 28 158 1.6 8.0 0.00 0.43 0.00 82 1011.4
20260831204016 28 180 3.2 9.7 0.00 0.43 0.00 80 1011.7
20260831203118 28 180 1.6 6.4 0.00 0.43 0.00 80 1011.8
20260831202017 28 158 3.2 8.0 0.00 0.43 0.00 81 1011.8
20260831201037 28 158 1.6 8.0 0.00 0.43 0.00 80 1011.9
20260831200016 28 248 6.4 16.1 0.00 0.43 0.00 76 1012.8
20260831195018 30 248 3.2 12.9 0.00 0.43 0.00 75 1012.8
20260831194016 31 225 3.2 11.3 0.00 0.43 0.00 71 1012.8
20260831193018 30 203 3.2 11.3 0.00 0.43 0.00 74 1012.6
20260831192016 30 225 1.6 8.0 0.00 0.43 0.00 74 1012.6
20260831191017 30 180 1.6 6.4 0.00 0.43 0.00 72 1012.5
20260831190016 30 180 1.6 6.4 0.00 0.43 0.00 73 1012.5
20260831185018 30 203 1.6 6.4 0.00 0.43 0.00 73 1012.6
20260831184016 31 203 1.6 8.0 0.00 0.43 0.00 72 1012.6
20260831183016 30 180 1.6 9.7 0.00 0.43 0.00 72 1012.7
20260831182016 30 180 4.8 8.0 0.00 0.43 0.00 74 1012.8
20260831181016 30 225 3.2 11.3 0.00 0.43 0.00 74 1012.9
20260831180016 30 248 4.8 11.3 0.00 0.43 0.00 71 1012.7
20260831175016 30 203 1.6 4.8 0.00 0.43 0.00 72 1013.0
20260831174016 29 158 4.8 9.7 0.00 0.43 0.00 75 1013.1
20260831173037 28 225 3.2 8.0 0.00 0.43 0.00 75 1013.0
20260831172016 28 203 3.2 8.0 0.00 0.43 0.00 75 1013.1
20260831171136 28 225 6.4 14.5 0.00 0.43 0.00 75 1013.3
20260831170018 28 180 3.2 9.7 0.00 0.43 0.00 76 1013.3
20260831165016 28 225 3.2 8.0 0.00 0.43 0.00 77 1013.3
20260831164016 28 203 3.2 9.7 0.00 0.43 0.00 76 1013.2
20260831163016 27 225 3.2 8.0 0.00 0.43 0.00 78 1013.1
20260831162016 27 248 4.8 11.3 0.00 0.43 0.00 78 1012.9
20260831161016 27 225 4.8 12.9 0.00 0.43 0.00 79 1012.9
20260831160038 27 270 4.8 12.9 0.00 0.43 0.00 77 1012.8
20260831155136 27 225 4.8 8.0 0.00 0.43 0.00 77 1012.7
20260831154016 27 225 3.2 8.0 0.00 0.43 0.00 80 1012.4
20260831153016 26 225 6.4 14.5 0.00 0.43 0.00 79 1012.2
20260831152016 26 225 4.8 14.5 0.00 0.43 0.00 80 1012.3
20260831151016 26 248 8.0 16.1 0.00 0.43 0.00 80 1012.0
20260831150016 25 225 4.8 16.1 0.00 0.43 0.00 81 1011.9
20260831145016 25 248 4.8 9.7 0.00 0.43 0.00 83 1011.9
20260831144016 25 248 6.4 14.5 0.00 0.43 0.00 84 1011.9
20260831143036 24 225 8.0 17.7 0.00 0.43 0.00 84 1011.8
20260831142016 23 225 4.8 12.9 0.00 0.43 0.00 86 1011.8
20260831141016 23 225 1.6 8.0 0.00 0.43 0.00 85 1011.6
20260831140016 23 225 4.8 9.7 0.00 0.43 0.00 85 1011.5
20260831135016 23 225 1.6 6.4 0.00 0.43 0.00 87 1011.6
20260831134016 23 225 3.2 9.7 0.00 0.43 0.00 86 1011.6
20260831133016 22 225 1.6 8.0 0.00 0.43 0.00 88 1011.4
20260831132016 22 225 3.2 8.0 0.00 0.43 0.00 87 1011.5
20260831131016 23 225 3.2 9.7 0.00 0.43 0.00 87 1011.4
20260831130036 23 203 3.2 9.7 0.00 0.43 0.00 87 1011.3
20260831125116 22 0.0 4.8 0.00 0.43 0.00 89 1011.3
20260831124016 22 0.0 0.0 0.00 0.43 0.00 89 1011.5
20260831123016 22 0.0 0.0 0.00 0.43 0.00 89 1011.2
20260831122016 22 135 1.6 4.8 0.00 0.43 0.00 90 1011.1
20260831121016 21 0.0 3.2 0.00 0.43 0.00 91 1011.0
20260831120017 21 158 1.6 4.8 0.00 0.43 0.00 92 1010.9
20260831115016 21 180 1.6 3.2 0.00 0.43 0.00 92 1010.9
20260831114016 21 180 1.6 6.4 0.00 0.43 0.00 92 1010.6
20260831113036 21 203 1.6 4.8 0.00 0.43 0.00 92 1010.8
20260831112016 21 203 1.6 8.0 0.00 0.43 0.00 92 1011.0
20260831111017 21 180 1.6 6.4 0.00 0.43 0.00 92 1011.0
20260831110016 21 180 1.6 6.4 0.00 0.43 0.00 92 1011.0
20260831105016 21 180 3.2 8.0 0.00 0.43 0.00 92 1010.9
20260831104037 21 180 1.6 6.4 0.00 0.43 0.00 92 1011.0
20260831103016 21 180 1.6 8.0 0.00 0.43 0.00 92 1011.0
20260831102037 21 180 3.2 6.4 0.00 0.43 0.00 92 1011.0
20260831101016 21 180 3.2 8.0 0.00 0.43 0.00 92 1011.0
20260831100036 21 180 3.2 8.0 0.00 0.43 0.00 92 1011.1
20260831095036 21 180 1.6 8.0 0.00 0.43 0.00 92 1011.2
20260831094015 21 180 1.6 6.4 0.00 0.43 0.00 93 1011.3
20260831093016 21 180 3.2 6.4 0.00 0.43 0.00 93 1011.4
20260831092015 21 180 3.2 8.0 0.00 0.43 0.00 93 1011.6
20260831091036 21 180 3.2 9.7 0.00 0.43 0.00 93 1011.7
20260831090016 21 158 4.8 8.0 0.00 0.43 0.00 93 1011.5
20260831085015 21 180 3.2 9.7 0.00 0.43 0.00 93 1011.6
20260831084015 21 158 4.8 8.0 0.00 0.43 0.00 93 1011.4
20260831083016 21 158 6.4 11.3 0.00 0.43 0.00 94 1011.5
20260831082015 20 158 4.8 9.7 0.00 0.43 0.00 94 1011.4
20260831081016 20 158 4.8 9.7 0.00 0.43 0.00 94 1011.5
20260831080015 20 158 3.2 6.4 0.00 0.43 0.00 93 1011.5
20260831075017 20 135 4.8 12.9 0.00 0.43 0.00 93 1011.5
20260831074017 21 135 4.8 8.0 0.00 0.43 0.00 93 1011.5
20260831073015 21 158 4.8 8.0 0.00 0.43 0.00 93 1011.6
20260831072036 21 135 4.8 9.7 0.00 0.43 0.00 93 1011.7
20260831071015 21 135 4.8 12.9 0.00 0.43 0.00 92 1011.7
20260831070015 21 158 4.8 9.7 0.00 0.43 0.00 92 1012.0
20260831065015 21 180 6.4 14.5 0.00 0.43 0.00 92 1012.0
20260831064015 21 158 6.4 11.3 0.00 0.43 0.00 92 1012.2
20260831063017 21 158 8.0 16.1 0.00 0.43 0.00 92 1012.3
20260831062015 21 135 8.0 19.3 0.00 0.43 0.00 92 1012.5
20260831061015 21 135 6.4 14.5 0.00 0.43 0.00 92 1012.7
20260831060015 21 158 8.0 17.7 0.00 0.43 0.00 92 1012.7
20260831055015 21 158 6.4 16.1 0.00 0.43 0.00 92 1012.7
20260831054017 21 135 8.0 17.7 0.00 0.43 0.00 92 1012.7
20260831053015 20 135 8.0 14.5 0.00 0.43 0.00 93 1012.8
20260831052015 20 135 6.4 9.7 0.00 0.43 0.00 93 1012.9
20260831051015 20 135 6.4 14.5 0.00 0.43 0.00 93 1013.0
20260831050015 20 135 6.4 12.9 0.00 0.43 0.43 93 1013.0
20260831045016 20 135 6.4 11.3 0.00 0.43 0.43 93 1013.1
20260831044016 20 135 9.7 16.1 0.00 0.43 0.43 94 1013.1
20260831043016 20 135 8.0 14.5 0.00 0.43 0.43 95 1013.2